TimeCST,TemperatureF,Dew PointF,Humidity,Sea Level PressureIn,VisibilityMPH,Wind Direction,Wind SpeedMPH,Gust SpeedMPH,PrecipitationIn,Events,Conditions,WindDirDegrees,DateUTC
12:13 AM,-4.0,-11.2,71,30.36,10.0,WNW,10.4,-,N/A,,Clear,290,2014-02-26 06:13:00
12:33 AM,-5.8,-13.0,71,30.35,10.0,West,10.4,-,N/A,,Clear,270,2014-02-26 06:33:00
12:53 AM,-4.0,-11.2,71,30.34,10.0,West,12.7,-,N/A,,Clear,270,2014-02-26 06:53:00
1:14 AM,-4.0,-11.2,71,30.33,10.0,West,10.4,-,N/A,,Clear,270,2014-02-26 07:14:00
1:33 AM,-5.8,-13.0,71,30.33,10.0,West,10.4,-,N/A,,Clear,260,2014-02-26 07:33:00
1:53 AM,-4.0,-9.4,78,30.31,10.0,West,10.4,-,N/A,,Clear,260,2014-02-26 07:53:00
2:14 AM,-4.0,-11.2,71,30.30,10.0,West,11.5,-,N/A,,Clear,260,2014-02-26 08:14:00
2:33 AM,-4.0,-9.4,78,30.29,10.0,West,10.4,-,N/A,,Clear,270,2014-02-26 08:33:00
2:53 AM,-5.8,-11.2,77,30.28,10.0,West,10.4,-,N/A,,Clear,260,2014-02-26 08:53:00
3:14 AM,-4.0,-11.2,71,30.26,10.0,West,10.4,-,N/A,,Clear,260,2014-02-26 09:14:00
3:33 AM,-4.0,-11.2,71,30.25,10.0,West,10.4,-,N/A,,Clear,260,2014-02-26 09:33:00
3:53 AM,-4.0,-11.2,71,30.23,10.0,West,10.4,-,N/A,,Clear,260,2014-02-26 09:53:00
4:13 AM,-4.0,-11.2,71,30.21,10.0,WSW,9.2,-,N/A,,Clear,250,2014-02-26 10:13:00
4:33 AM,-4.0,-11.2,71,30.19,10.0,WSW,9.2,-,N/A,,Clear,250,2014-02-26 10:33:00
4:53 AM,-7.6,-14.8,71,30.17,10.0,SW,6.9,-,N/A,,Clear,230,2014-02-26 10:53:00
5:14 AM,-7.6,-13.0,77,30.15,10.0,WSW,8.1,-,N/A,,Clear,240,2014-02-26 11:14:00
5:33 AM,-7.6,-13.0,77,30.14,10.0,WSW,6.9,-,N/A,,Clear,240,2014-02-26 11:33:00
5:53 AM,-5.8,-13.0,71,30.13,10.0,SW,6.9,-,N/A,,Clear,230,2014-02-26 11:53:00
6:13 AM,-4.0,-11.2,71,30.12,-9999.0,SW,10.4,-,N/A,,Clear,230,2014-02-26 12:13:00
6:33 AM,-4.0,-11.2,71,30.10,-9999.0,SW,11.5,-,N/A,,Clear,230,2014-02-26 12:33:00
6:53 AM,-4.0,-11.2,71,30.08,-9999.0,SW,9.2,-,N/A,,Clear,230,2014-02-26 12:53:00
7:13 AM,-4.0,-11.2,71,30.06,-9999.0,WSW,12.7,-,N/A,,Clear,240,2014-02-26 13:13:00
7:34 AM,-4.0,-11.2,71,30.04,-9999.0,WSW,16.1,-,N/A,,Clear,240,2014-02-26 13:34:00
7:53 AM,-2.2,-9.4,71,30.03,-9999.0,WSW,13.8,-,N/A,,Clear,240,2014-02-26 13:53:00
8:13 AM,-0.4,-9.4,66,30.02,-9999.0,WSW,16.1,-,N/A,,Clear,240,2014-02-26 14:13:00
8:33 AM,1.4,-7.6,66,30.00,-9999.0,SW,17.3,-,N/A,,Clear,230,2014-02-26 14:33:00
8:53 AM,1.4,-5.8,72,29.99,-9999.0,SW,18.4,-,N/A,,Clear,230,2014-02-26 14:53:00
9:13 AM,3.2,-5.8,66,29.97,10.0,WSW,19.6,-,N/A,,Clear,240,2014-02-26 15:13:00
9:33 AM,5.0,-4.0,66,29.95,10.0,SW,19.6,-,N/A,,Clear,230,2014-02-26 15:33:00
9:53 AM,5.0,-4.0,66,29.92,10.0,WSW,21.9,-,N/A,,Clear,240,2014-02-26 15:53:00
10:14 AM,8.6,1.4,73,29.89,10.0,WSW,21.9,-,N/A,,Clear,240,2014-02-26 16:14:00
10:33 AM,10.4,1.4,67,29.88,10.0,WSW,19.6,26.5,N/A,,Clear,240,2014-02-26 16:33:00
10:53 AM,12.2,3.2,67,29.86,10.0,WSW,21.9,27.6,N/A,,Clear,240,2014-02-26 16:53:00
11:13 AM,15.8,5.0,62,29.84,10.0,WSW,23.0,29.9,N/A,,Clear,240,2014-02-26 17:13:00
11:34 AM,15.8,5.0,62,29.81,10.0,WSW,24.2,28.8,N/A,,Clear,250,2014-02-26 17:34:00
11:53 AM,15.8,5.0,62,29.79,10.0,WSW,19.6,26.5,N/A,,Clear,250,2014-02-26 17:53:00
12:13 PM,17.6,8.6,68,29.76,10.0,WSW,26.5,29.9,N/A,,Clear,250,2014-02-26 18:13:00
12:34 PM,19.4,8.6,63,29.74,10.0,WSW,23.0,28.8,N/A,,Clear,240,2014-02-26 18:34:00
12:53 PM,21.2,8.6,58,29.72,10.0,West,28.8,33.4,N/A,,Clear,260,2014-02-26 18:53:00
1:13 PM,21.2,6.8,54,29.70,10.0,West,26.5,33.4,N/A,,Clear,260,2014-02-26 19:13:00
1:33 PM,21.2,10.4,63,29.69,10.0,West,25.3,31.1,N/A,,Clear,270,2014-02-26 19:33:00
1:53 PM,23.0,10.4,59,29.67,10.0,West,27.6,32.2,N/A,,Clear,270,2014-02-26 19:53:00
2:13 PM,23.0,10.4,59,29.67,10.0,West,26.5,35.7,N/A,,Clear,280,2014-02-26 20:13:00
2:33 PM,23.0,10.4,59,29.67,7.0,West,28.8,39.1,N/A,,Clear,280,2014-02-26 20:33:00
2:54 PM,23.0,10.4,59,29.67,10.0,West,20.7,32.2,N/A,,Clear,280,2014-02-26 20:54:00
3:14 PM,23.0,10.4,59,29.67,10.0,WNW,25.3,35.7,N/A,,Clear,300,2014-02-26 21:14:00
3:33 PM,23.0,10.4,59,29.67,5.0,WNW,27.6,34.5,N/A,,Haze,300,2014-02-26 21:33:00
3:53 PM,23.0,10.4,59,29.68,7.0,WNW,23.0,31.1,N/A,,Clear,300,2014-02-26 21:53:00
4:13 PM,21.2,12.2,68,29.68,5.0,NW,25.3,34.5,N/A,,Haze,310,2014-02-26 22:13:00
4:34 PM,21.2,10.4,63,29.69,5.0,NW,24.2,32.2,N/A,,Haze,320,2014-02-26 22:34:00
4:53 PM,21.2,12.2,68,29.71,10.0,NW,19.6,27.6,N/A,,Clear,320,2014-02-26 22:53:00
5:13 PM,17.6,12.2,79,29.72,4.0,NNW,25.3,32.2,N/A,,Haze,330,2014-02-26 23:13:00
5:33 PM,15.8,10.4,79,29.74,2.0,NNW,26.5,33.4,N/A,,Haze,330,2014-02-26 23:33:00
5:53 PM,15.8,8.6,73,29.76,5.0,NNW,26.5,32.2,N/A,,Haze,330,2014-02-26 23:53:00
6:13 PM,12.2,5.0,73,29.78,4.0,NNW,23.0,31.1,N/A,,Haze,330,2014-02-27 00:13:00
6:33 PM,12.2,5.0,73,29.80,7.0,NNW,23.0,28.8,N/A,,Clear,330,2014-02-27 00:33:00
6:53 PM,12.2,5.0,73,29.81,10.0,NNW,20.7,26.5,N/A,,Clear,330,2014-02-27 00:53:00
7:14 PM,10.4,3.2,73,29.82,7.0,NW,23.0,28.8,N/A,,Clear,320,2014-02-27 01:14:00
7:33 PM,10.4,3.2,73,29.83,5.0,NW,21.9,28.8,N/A,,Haze,320,2014-02-27 01:33:00
7:53 PM,10.4,3.2,73,29.84,4.0,NNW,23.0,34.5,N/A,,Haze,330,2014-02-27 01:53:00
8:13 PM,10.4,3.2,73,29.86,7.0,NW,21.9,28.8,N/A,,Clear,320,2014-02-27 02:13:00
8:33 PM,10.4,3.2,73,29.88,2.5,NNW,27.6,34.5,N/A,,Haze,340,2014-02-27 02:33:00
8:53 PM,5.0,-4.0,66,29.89,5.0,NNW,21.9,32.2,N/A,,Haze,330,2014-02-27 02:53:00
9:13 PM,5.0,-5.8,61,29.90,7.0,NW,27.6,31.1,N/A,,Clear,320,2014-02-27 03:13:00
9:33 PM,3.2,-5.8,66,29.92,3.0,NW,24.2,-,N/A,,Haze,320,2014-02-27 03:33:00
9:53 PM,1.4,-7.6,66,29.94,4.0,NNW,23.0,32.2,N/A,,Haze,330,2014-02-27 03:53:00
10:13 PM,1.4,-7.6,66,29.94,10.0,NNW,20.7,27.6,N/A,,Clear,330,2014-02-27 04:13:00
10:33 PM,1.4,-9.4,61,29.95,7.0,NNW,24.2,31.1,N/A,,Clear,330,2014-02-27 04:33:00
10:53 PM,1.4,-9.4,61,29.96,10.0,NNW,15.0,21.9,N/A,,Clear,330,2014-02-27 04:53:00
11:13 PM,-0.4,-11.2,60,29.98,10.0,NW,17.3,-,N/A,,Clear,320,2014-02-27 05:13:00
11:33 PM,-2.2,-13.0,60,29.99,10.0,NW,18.4,-,N/A,,Clear,320,2014-02-27 05:33:00
11:53 PM,-2.2,-13.0,60,29.99,10.0,NNW,17.3,23.0,N/A,,Clear,330,2014-02-27 05:53:00